Location: Camoruquito
(9.9001°N, 67.3564°W)
Time: 14:53:15
(UTC+00:00)

Cosmos 1624 Rocket - Pass Details

Date: 14 April 2024
Orbit: 755 x 781 km, 74.0° (Epoch: 28 May)

Event Time Altitude Azimuth Distance (km) Brightness Sun altitude
Rises 09:19:23 0° 343° (NNW) 3,205 7.2 -15.3°
Reaches altitude 10° 09:21:45 10° 341° (NNW) 2,278 6.4 -14.8°
Maximum altitude 09:26:53 70° 258° (WSW) 801 3.9 -13.5°
Drops below altitude 10° 09:32:00 10° 175° (S) 2,275 6.4 -12.3°
Sets 09:34:23 0° 172° (S) 3,200 7.2 -11.7°
